Tracking 19706 objects as of 16-Jun-2019
HD Live streaming from Space Station
objects crossing your sky now

FLOCK 3R 5

Track FLOCK 3R 5 now!
10-day predictions
FLOCK 3R 5 is classified as:


NORAD ID: 43726
Int'l Code: 2018-096H
Perigee: 479.7 km
Apogee: 503.7 km
Inclination: 97.5 °
Period: 94.3 minutes
Semi major axis: 6862 km
RCS: Unknown
Launch date: November 29, 2018
Source: United States (US)
Launch site: SRIHARIKOTA (SRI)
aabbcc
Your satellite tracking list
Your tracking list is empty




NASA's NSSDC Master Catalog

Two Line Element Set (TLE):
1 43726U 18096H   19167.17878525  .00000975  00000-0  39422-4 0  9998
2 43726  97.4605 237.2144 0017518 349.1640  10.9218 15.27078871 30355
Source of the keplerian elements: AFSPC